Time,TemperatureF,DewpointF,PressureIn,WindDirection,WindDirectionDegrees,WindSpeedMPH,WindSpeedGustMPH,Humidity,HourlyPrecipIn,Conditions,Clouds,dailyrainin,SolarRadiationWatts/m^2,SoftwareType,DateUTC
2013-02-12 00:21:00,8.0,2.0,-100.00,WNW,301,1.0,3.0,75,-99.99,,,0.00,0.000000,,2013-02-12 07:21:00,
2013-02-12 01:21:00,12.0,4.0,-100.00,NW,325,2.0,4.0,70,-99.99,,,0.00,0.000000,,2013-02-12 08:21:00,
2013-02-12 01:32:00,12.0,4.0,-100.00,NW,325,2.0,4.0,70,-99.99,,,0.00,0.000000,,2013-02-12 08:32:00,
2013-02-12 02:11:00,13.0,5.0,-100.00,West,264,0.0,5.0,69,-99.99,,,0.00,0.000000,,2013-02-12 09:11:00,
2013-02-12 02:21:00,13.0,5.0,-100.00,West,264,0.0,5.0,69,-99.99,,,0.00,0.000000,,2013-02-12 09:21:00,
2013-02-12 03:21:00,14.0,5.0,-100.00,NW,316,2.0,4.0,68,-99.99,,,0.00,0.000000,,2013-02-12 10:21:00,
2013-02-12 04:22:00,11.0,4.0,-100.00,NW,321,2.0,4.0,74,0.00,,,0.00,0.000000,,2013-02-12 11:22:00,
2013-02-12 05:21:00,10.0,4.0,-100.00,NNW,332,2.0,4.0,77,-99.99,,,0.00,0.000000,,2013-02-12 12:21:00,
2013-02-12 06:22:00,11.0,6.0,-100.00,NNW,329,2.0,3.0,80,0.00,,,0.00,0.000000,,2013-02-12 13:22:00,
2013-02-12 07:12:00,12.0,7.0,-100.00,NW,326,2.0,4.0,80,-99.99,,,-99.99,1.000000,,2013-02-12 14:12:00,
2013-02-12 07:21:00,12.0,7.0,-100.00,NW,326,2.0,4.0,80,-99.99,,,-99.99,1.000000,,2013-02-12 14:21:00,
2013-02-12 08:11:00,17.0,10.0,-100.00,North,350,2.0,3.0,73,-99.99,,,0.00,26.000000,,2013-02-12 15:11:00,
2013-02-12 08:21:00,17.0,10.0,-100.00,North,350,2.0,3.0,73,-99.99,,,0.00,26.000000,,2013-02-12 15:21:00,
2013-02-12 08:32:00,17.0,10.0,-100.00,North,350,2.0,3.0,73,-99.99,,,0.00,26.000000,,2013-02-12 15:32:00,
2013-02-12 08:42:00,17.0,10.0,-100.00,North,350,2.0,3.0,73,-99.99,,,0.00,26.000000,,2013-02-12 15:42:00,
2013-02-12 08:52:00,17.0,10.0,-100.00,North,350,2.0,3.0,73,-99.99,,,0.00,26.000000,,2013-02-12 15:52:00,
2013-02-12 09:22:00,29.0,12.0,-100.00,North,3,3.0,8.0,48,-99.99,,,0.00,106.000000,,2013-02-12 16:22:00,
2013-02-12 09:32:00,29.0,12.0,-100.00,North,3,3.0,8.0,48,-99.99,,,0.00,106.000000,,2013-02-12 16:32:00,
2013-02-12 09:41:00,29.0,12.0,-100.00,North,3,3.0,8.0,48,-99.99,,,0.00,106.000000,,2013-02-12 16:41:00,
2013-02-12 09:51:00,29.0,12.0,-100.00,North,3,3.0,8.0,48,-99.99,,,0.00,106.000000,,2013-02-12 16:51:00,
2013-02-12 10:21:00,39.0,15.0,-100.00,NW,323,6.0,11.0,37,0.00,,,0.00,363.000000,,2013-02-12 17:21:00,
2013-02-12 10:32:00,39.0,15.0,-100.00,NW,323,6.0,11.0,37,0.00,,,0.00,363.000000,,2013-02-12 17:32:00,
2013-02-12 10:42:00,39.0,15.0,-100.00,NW,323,6.0,11.0,37,0.00,,,0.00,363.000000,,2013-02-12 17:42:00,
2013-02-12 10:52:00,39.0,15.0,-100.00,NW,323,6.0,11.0,37,0.00,,,0.00,363.000000,,2013-02-12 17:52:00,
2013-02-12 11:23:00,42.0,16.0,-100.00,NW,309,5.0,15.0,35,0.00,,,0.00,554.000000,,2013-02-12 18:23:00,
2013-02-12 11:32:00,42.0,16.0,-100.00,NW,309,5.0,15.0,35,0.00,,,0.00,554.000000,,2013-02-12 18:32:00,
2013-02-12 11:41:00,42.0,16.0,-100.00,NW,309,5.0,15.0,35,0.00,,,0.00,554.000000,,2013-02-12 18:41:00,
2013-02-12 11:51:00,42.0,16.0,-100.00,NW,309,5.0,15.0,35,0.00,,,0.00,554.000000,,2013-02-12 18:51:00,
2013-02-12 12:11:00,41.0,16.0,-100.00,NNW,339,9.0,17.0,36,0.00,,,0.00,486.000000,,2013-02-12 19:11:00,
2013-02-12 12:21:00,41.0,16.0,-100.00,NNW,339,9.0,17.0,36,0.00,,,0.00,486.000000,,2013-02-12 19:21:00,
2013-02-12 12:31:00,41.0,16.0,-100.00,NNW,339,9.0,17.0,36,0.00,,,0.00,486.000000,,2013-02-12 19:31:00,
2013-02-12 12:41:00,41.0,16.0,-100.00,NNW,339,9.0,17.0,36,0.00,,,0.00,486.000000,,2013-02-12 19:41:00,
2013-02-12 12:51:00,41.0,16.0,-100.00,NNW,339,9.0,17.0,36,0.00,,,0.00,486.000000,,2013-02-12 19:51:00,
2013-02-12 13:21:00,41.0,16.0,-100.00,NW,320,7.0,17.0,36,0.00,,,0.00,618.000000,,2013-02-12 20:21:00,
2013-02-12 13:32:00,41.0,16.0,-100.00,NW,320,7.0,17.0,36,0.00,,,0.00,618.000000,,2013-02-12 20:32:00,
2013-02-12 13:41:00,41.0,16.0,-100.00,NW,320,7.0,17.0,36,0.00,,,0.00,618.000000,,2013-02-12 20:41:00,
2013-02-12 13:52:00,41.0,16.0,-100.00,NW,320,7.0,17.0,36,0.00,,,0.00,618.000000,,2013-02-12 20:52:00,
2013-02-12 14:21:00,39.0,14.0,-100.00,NNW,332,8.0,20.0,36,0.00,,,0.00,527.000000,,2013-02-12 21:21:00,
2013-02-12 14:31:00,39.0,14.0,-100.00,NNW,332,8.0,20.0,36,0.00,,,0.00,527.000000,,2013-02-12 21:31:00,
2013-02-12 14:42:00,39.0,14.0,-100.00,NNW,332,8.0,20.0,36,0.00,,,0.00,527.000000,,2013-02-12 21:42:00,
2013-02-12 14:51:00,39.0,14.0,-100.00,NNW,332,8.0,20.0,36,0.00,,,0.00,527.000000,,2013-02-12 21:51:00,
2013-02-12 15:21:00,40.0,15.0,-100.00,NW,307,6.0,16.0,35,0.00,,,0.00,112.000000,,2013-02-12 22:21:00,
2013-02-12 15:32:00,40.0,15.0,-100.00,NW,307,6.0,16.0,35,0.00,,,0.00,112.000000,,2013-02-12 22:32:00,
2013-02-12 15:42:00,40.0,15.0,-100.00,NW,307,6.0,16.0,35,0.00,,,0.00,112.000000,,2013-02-12 22:42:00,
2013-02-12 15:51:00,40.0,15.0,-100.00,NW,307,6.0,16.0,35,0.00,,,0.00,112.000000,,2013-02-12 22:51:00,
2013-02-12 16:21:00,38.0,14.0,-100.00,NNW,345,7.0,17.0,37,0.00,,,0.00,67.000000,,2013-02-12 23:21:00,
2013-02-12 16:32:00,38.0,14.0,-100.00,NNW,345,7.0,17.0,37,0.00,,,0.00,67.000000,,2013-02-12 23:32:00,
2013-02-12 16:42:00,38.0,14.0,-100.00,NNW,345,7.0,17.0,37,0.00,,,0.00,67.000000,,2013-02-12 23:42:00,
2013-02-12 16:52:00,38.0,14.0,-100.00,NNW,345,7.0,17.0,37,0.00,,,0.00,67.000000,,2013-02-12 23:52:00,
2013-02-12 17:21:00,32.0,14.0,-100.00,NW,320,3.0,16.0,47,0.00,,,0.00,36.000000,,2013-02-13 00:21:00,
2013-02-12 17:32:00,32.0,14.0,-100.00,NW,320,3.0,16.0,47,0.00,,,0.00,36.000000,,2013-02-13 00:32:00,
2013-02-12 17:42:00,32.0,14.0,-100.00,NW,320,3.0,16.0,47,0.00,,,0.00,36.000000,,2013-02-13 00:42:00,
2013-02-12 17:52:00,32.0,14.0,-100.00,NW,320,3.0,16.0,47,0.00,,,0.00,36.000000,,2013-02-13 00:52:00,
2013-02-12 18:42:00,30.0,15.0,-100.00,NNW,345,2.0,8.0,53,0.00,,,0.00,5.000000,,2013-02-13 01:42:00,
2013-02-12 18:51:00,30.0,15.0,-100.00,NNW,345,2.0,8.0,53,0.00,,,0.00,5.000000,,2013-02-13 01:51:00,
2013-02-12 19:41:00,29.0,15.0,-100.00,North,356,2.0,7.0,56,0.00,,,0.00,0.000000,,2013-02-13 02:41:00,
2013-02-12 19:52:00,29.0,15.0,-100.00,North,356,2.0,7.0,56,0.00,,,0.00,0.000000,,2013-02-13 02:52:00,
2013-02-12 20:21:00,28.0,16.0,-100.00,ENE,62,2.0,6.0,60,0.00,,,0.00,0.000000,,2013-02-13 03:21:00,
2013-02-12 20:32:00,28.0,16.0,-100.00,ENE,62,2.0,6.0,60,0.00,,,0.00,0.000000,,2013-02-13 03:32:00,
2013-02-12 20:42:00,28.0,16.0,-100.00,ENE,62,2.0,6.0,60,0.00,,,0.00,0.000000,,2013-02-13 03:42:00,
2013-02-12 20:51:00,28.0,16.0,-100.00,ENE,62,2.0,6.0,60,0.00,,,0.00,0.000000,,2013-02-13 03:51:00,
2013-02-12 21:11:00,30.0,17.0,-100.00,NNW,345,5.0,12.0,57,0.00,,,0.00,0.000000,,2013-02-13 04:11:00,
2013-02-12 21:21:00,30.0,17.0,-100.00,NNW,345,5.0,12.0,57,0.00,,,0.00,0.000000,,2013-02-13 04:21:00,
2013-02-12 21:32:00,30.0,17.0,-100.00,NNW,345,5.0,12.0,57,0.00,,,0.00,0.000000,,2013-02-13 04:32:00,
2013-02-12 21:41:00,30.0,17.0,-100.00,NNW,345,5.0,12.0,57,0.00,,,0.00,0.000000,,2013-02-13 04:41:00,
2013-02-12 21:51:00,30.0,17.0,-100.00,NNW,345,5.0,12.0,57,0.00,,,0.00,0.000000,,2013-02-13 04:51:00,
2013-02-12 22:22:00,31.0,18.0,-100.00,NW,315,6.0,14.0,57,0.00,,,0.00,0.000000,,2013-02-13 05:22:00,
2013-02-12 22:31:00,31.0,18.0,-100.00,NW,315,6.0,14.0,57,0.00,,,0.00,0.000000,,2013-02-13 05:31:00,
2013-02-12 22:42:00,31.0,18.0,-100.00,NW,315,6.0,14.0,57,0.00,,,0.00,0.000000,,2013-02-13 05:42:00,
2013-02-12 22:52:00,31.0,18.0,-100.00,NW,315,6.0,14.0,57,0.00,,,0.00,0.000000,,2013-02-13 05:52:00,
2013-02-12 23:11:00,30.0,17.0,-100.00,NNW,340,3.0,10.0,59,0.00,,,0.00,0.000000,,2013-02-13 06:11:00,
2013-02-12 23:21:00,30.0,17.0,-100.00,NNW,340,3.0,10.0,59,0.00,,,0.00,0.000000,,2013-02-13 06:21:00,
2013-02-12 23:32:00,30.0,17.0,-100.00,NNW,340,3.0,10.0,59,0.00,,,0.00,0.000000,,2013-02-13 06:32:00,
2013-02-12 23:42:00,30.0,17.0,-100.00,NNW,340,3.0,10.0,59,0.00,,,0.00,0.000000,,2013-02-13 06:42:00,
2013-02-12 23:51:00,30.0,17.0,-100.00,NNW,340,3.0,10.0,59,0.00,,,0.00,0.000000,,2013-02-13 06:51:00,